W4SNA-2 Weather Reports


Display with metric or nautical units.
time (UTC)temp
F
wind
direction
speed
MPH
gust
MPH
rain 1hr
in
rain 24hr
in
rain mn
in
humidity
%
barometer
mb
20211208122753 35 13 3.0 7.0 0.00 0.00 0.00 50 974.8
20211208122256 35 8 3.0 9.0 0.00 0.00 0.00 51 974.8
20211208121801 35 9 5.0 10.0 0.00 0.00 0.00 51 974.9
20211208121303 35 354 7.0 10.0 0.00 0.00 0.00 51 975.1
20211208120753 34 4 7.0 11.0 0.00 0.00 0.00 51 975.4
20211208120302 34 7 7.0 11.0 0.00 0.00 0.00 52 975.2
20211208115753 34 354 7.0 11.0 0.00 0.00 0.00 53 975.7
20211208114945 34 357 8.0 13.0 0.00 0.00 0.00 54 975.6
20211208114445 34 343 7.0 13.0 0.00 0.00 0.00 54 975.8
20211208114313 34 351 9.0 11.0 0.00 0.00 0.00 54 975.6
20211208113942 34 351 9.0 11.0 0.00 0.00 0.00 54 975.6
20211208113438 34 350 8.0 11.0 0.00 0.00 0.00 54 975.7
20211208112950 34 349 6.0 9.0 0.00 0.00 0.00 53 975.3
20211208112438 35 351 4.0 8.0 0.00 0.00 0.00 51 975.3
20211208111945 36 284 3.0 6.0 0.00 0.00 0.00 49 975.4
20211208111438 37 0 0.0 0.0 0.00 0.00 0.00 47 975.4
20211208110938 38 0 0.0 0.0 0.00 0.00 0.00 46 975.2
20211208110319 39 0 0.0 1.0 0.00 0.00 0.00 50 975.0
20211208105835 39 0 0.0 5.0 0.00 0.00 0.00 49 975.2
20211208105319 39 0 0.0 5.0 0.00 0.00 0.00 49 975.1
20211208104820 39 0 0.0 5.0 0.00 0.00 0.00 48 974.9
20211208104335 38 0 0.0 2.0 0.00 0.00 0.00 48 974.9
20211208103820 38 0 0.0 4.0 0.00 0.00 0.00 47 974.6
20211208103320 39 0 0.0 4.0 0.00 0.00 0.00 47 974.9
20211208102829 39 0 0.0 7.0 0.00 0.00 0.00 46 975.1
20211208102320 39 195 2.0 7.0 0.00 0.00 0.00 46 975.3
20211208101828 39 201 1.0 6.0 0.00 0.00 0.00 46 975.2
20211208101325 39 0 0.0 8.0 0.00 0.00 0.00 46 975.1
20211208100821 38 203 2.0 8.0 0.00 0.00 0.00 46 975.2
20211208100319 38 0 0.0 8.0 0.00 0.00 0.00 46 975.4
20211208095835 38 0 0.0 8.0 0.00 0.00 0.00 46 975.2
20211208095319 38 0 0.0 3.0 0.00 0.00 0.00 46 975.3
20211208094539 38 189 4.0 7.0 0.00 0.00 0.00 45 975.1
20211208094039 38 191 1.0 7.0 0.00 0.00 0.00 45 975.3
20211208093541 38 194 2.0 7.0 0.00 0.00 0.00 45 975.5
20211208093047 38 0 0.0 5.0 0.00 0.00 0.00 45 975.6
20211208092539 38 0 0.0 5.0 0.00 0.00 0.00 45 975.4
20211208091746 38 196 2.0 7.0 0.00 0.00 0.00 45 975.8
20211208091251 38 0 0.0 7.0 0.00 0.00 0.00 45 975.8
20211208090744 38 0 0.0 7.0 0.00 0.00 0.00 45 975.3
20211208090252 38 0 0.0 9.0 0.00 0.00 0.00 44 975.6
20211208085746 38 0 0.0 9.0 0.00 0.00 0.00 45 975.6
20211208085250 38 0 0.0 3.0 0.00 0.00 0.00 44 975.8
20211208084745 38 0 0.0 8.0 0.00 0.00 0.00 44 975.7
20211208084246 38 189 2.0 8.0 0.00 0.00 0.00 44 975.6
20211208083744 38 0 0.0 6.0 0.00 0.00 0.00 44 976.0
20211208083249 38 189 1.0 6.0 0.00 0.00 0.00 44 975.9
20211208082246 37 0 0.0 7.0 0.00 0.00 0.00 44 975.7
20211208081743 37 186 1.0 7.0 0.00 0.00 0.00 44 975.8
20211208081253 37 0 0.0 2.0 0.00 0.00 0.00 44 975.5
20211208080742 37 0 0.0 2.0 0.00 0.00 0.00 44 975.8
20211208080245 37 0 0.0 2.0 0.00 0.00 0.00 44 976.0
20211208075743 37 0 0.0 4.0 0.00 0.00 0.00 44 976.2
20211208075243 38 0 0.0 6.0 0.00 0.00 0.00 44 976.5
20211208074757 38 0 0.0 6.0 0.00 0.00 0.00 43 976.6
20211208074243 38 185 1.0 4.0 0.00 0.00 0.00 43 976.8
20211208073740 38 0 0.0 3.0 0.00 0.00 0.00 43 976.6
20211208073240 38 0 0.0 4.0 0.00 0.00 0.00 43 976.7
20211208072735 38 0 0.0 4.0 0.00 0.00 0.00 43 976.5
20211208072243 38 0 0.0 5.0 0.00 0.00 0.00 42 976.5
20211208071731 38 0 0.0 5.0 0.00 0.00 0.00 42 976.3
20211208071235 38 0 0.0 7.0 0.00 0.00 0.00 43 976.5
20211208070733 38 188 1.0 7.0 0.00 0.00 0.00 43 976.7
20211208070240 38 0 0.0 7.0 0.00 0.00 0.00 42 976.8
20211208065735 38 191 2.0 7.0 0.00 0.00 0.00 42 976.8
20211208065235 38 185 1.0 5.0 0.00 0.00 0.00 42 976.6
20211208064744 38 0 0.0 4.0 0.00 0.00 0.00 42 976.9
20211208063834 38 187 1.0 7.0 0.00 0.00 0.00 42 976.9
20211208063333 38 0 0.0 4.0 0.00 0.00 0.00 42 976.9
20211208062837 38 0 0.0 6.0 0.00 0.00 0.00 42 977.0
20211208062333 38 0 0.0 6.0 0.00 0.00 0.00 42 977.0
20211208061836 38 0 0.0 3.0 0.00 0.00 0.00 42 977.4
20211208061333 38 0 0.0 5.0 0.00 0.00 0.00 41 977.6
20211208060833 38 187 1.0 5.0 0.00 0.00 0.00 41 977.7
20211208060334 38 190 1.0 7.0 0.00 0.00 0.00 41 977.7
20211208055835 38 194 2.0 7.0 0.00 0.00 0.00 41 977.7
20211208055333 38 0 0.0 2.0 0.00 0.00 0.00 41 977.7
20211208054526 38 0 0.0 4.0 0.00 0.00 0.00 41 977.4
20211208054024 38 0 0.0 5.0 0.00 0.00 0.00 42 977.8
20211208053525 38 0 0.0 5.0 0.00 0.00 0.00 41 977.9
20211208053026 38 0 0.0 4.0 0.00 0.00 0.00 41 977.8
20211208052520 39 0 0.0 5.0 0.00 0.00 0.00 41 977.8
20211208052023 39 189 2.0 5.0 0.00 0.00 0.00 41 978.2
20211208051532 38 0 0.0 8.0 0.00 0.00 0.00 41 978.3
20211208051025 38 197 2.0 8.0 0.00 0.00 0.00 41 977.9
20211208050524 38 0 0.0 5.0 0.00 0.00 0.00 41 978.1
20211208050025 38 180 1.0 5.0 0.00 0.00 0.00 41 978.0
20211208045525 38 0 0.0 3.0 0.00 0.00 0.00 40 977.9
20211208044925 38 0 0.0 5.0 0.00 0.00 0.00 41 978.2
20211208044421 39 175 1.0 7.0 0.00 0.00 0.00 40 978.0
20211208043921 39 0 0.0 7.0 0.00 0.00 0.00 40 978.5
20211208043421 38 188 1.0 7.0 0.00 0.00 0.00 40 978.4
20211208042922 39 0 0.0 4.0 0.00 0.00 0.00 40 978.6
20211208042422 39 184 1.0 6.0 0.00 0.00 0.00 39 978.8
20211208041923 39 183 2.0 6.0 0.00 0.00 0.00 39 978.9
20211208041422 39 187 1.0 7.0 0.00 0.00 0.00 39 978.9
20211208040922 39 189 1.0 7.0 0.00 0.00 0.00 39 978.8
20211208040422 39 0 0.0 3.0 0.00 0.00 0.00 39 979.0
20211208035922 38 0 0.0 3.0 0.00 0.00 0.00 39 978.9
20211208035421 38 0 0.0 9.0 0.00 0.00 0.00 40 979.3
20211208034921 38 0 0.0 9.0 0.00 0.00 0.00 39 979.4
20211208034026 38 184 1.0 8.0 0.00 0.00 0.00 39 979.0
20211208033525 38 0 0.0 4.0 0.00 0.00 0.00 39 979.1
20211208033024 38 183 1.0 10.0 0.00 0.00 0.00 39 979.6
20211208032534 38 0 0.0 10.0 0.00 0.00 0.00 39 979.6
20211208032024 39 185 1.0 6.0 0.00 0.00 0.00 39 979.6
20211208031530 39 0 0.0 4.0 0.00 0.00 0.00 39 979.6
20211208031024 39 0 0.0 4.0 0.00 0.00 0.00 39 979.6
20211208030525 39 0 0.0 8.0 0.00 0.00 0.00 39 980.0
20211208030024 39 0 0.0 8.0 0.00 0.00 0.00 39 979.9
20211208025204 39 0 0.0 6.0 0.00 0.00 0.00 39 980.0
20211208024704 39 187 1.0 6.0 0.00 0.00 0.00 38 979.9
20211208024204 39 0 0.0 4.0 0.00 0.00 0.00 38 979.5
20211208023715 39 185 1.0 4.0 0.00 0.00 0.00 38 979.6
20211208023205 39 0 0.0 4.0 0.00 0.00 0.00 38 979.7
20211208022705 39 0 0.0 4.0 0.00 0.00 0.00 38 979.9
20211208022204 39 185 1.0 5.0 0.00 0.00 0.00 38 979.8
20211208021704 39 0 0.0 8.0 0.00 0.00 0.00 38 979.8
20211208021204 39 185 2.0 8.0 0.00 0.00 0.00 38 979.5
20211208020704 39 0 0.0 3.0 0.00 0.00 0.00 37 979.7
20211208020203 39 0 0.0 6.0 0.00 0.00 0.00 36 980.0
20211208015703 39 183 1.0 6.0 0.00 0.00 0.00 36 980.0
20211208015203 39 0 0.0 5.0 0.00 0.00 0.00 36 979.4
20211208014713 39 0 0.0 5.0 0.00 0.00 0.00 35 979.8
20211208014017 39 0 0.0 4.0 0.00 0.00 0.00 34 979.7
20211208013517 39 0 0.0 2.0 0.00 0.00 0.00 34 979.9
20211208013023 39 0 0.0 4.0 0.00 0.00 0.00 34 980.1
20211208012517 39 0 0.0 4.0 0.00 0.00 0.00 34 979.8
20211208012017 39 0 0.0 4.0 0.00 0.00 0.00 33 980.0
20211208011522 39 0 0.0 2.0 0.00 0.00 0.00 32 980.3
20211208011017 40 0 0.0 4.0 0.00 0.00 0.00 32 980.1
20211208010517 40 0 0.0 4.0 0.00 0.00 0.00 32 980.3
20211208010022 40 0 0.0 1.0 0.00 0.00 0.00 32 980.3
20211208005517 40 0 0.0 4.0 0.00 0.00 0.00 31 980.5
20211208005017 40 0 0.0 4.0 0.00 0.00 0.00 32 980.3
20211208004517 40 0 0.0 2.0 0.00 0.00 0.00 32 980.2
20211208004016 40 0 0.0 1.0 0.00 0.00 0.00 32 980.5
20211208003050 40 0 0.0 4.0 0.00 0.00 0.00 32 980.3
20211208002552 40 0 0.0 4.0 0.00 0.00 0.00 32 980.1
20211208002052 40 0 0.0 5.0 0.00 0.00 0.00 32 979.9
20211208001550 39 0 0.0 5.0 0.00 0.00 0.00 32 979.9
20211208001056 39 0 0.0 3.0 0.00 0.00 0.00 32 979.9
20211208000550 40 0 0.0 4.0 0.00 0.00 0.00 31 979.8
20211208000050 40 0 0.0 4.0 0.00 0.00 0.00 30 979.7
20211207235552 40 0 0.0 3.0 0.00 0.00 0.00 30 979.8
20211207235051 40 0 0.0 2.0 0.00 0.00 0.00 30 979.8
20211207234551 40 0 0.0 2.0 0.00 0.00 0.00 30 980.1
20211207234051 40 0 0.0 2.0 0.00 0.00 0.00 31 979.9
20211207233551 40 0 0.0 0.0 0.00 0.00 0.00 30 979.9
20211207232623 40 0 0.0 0.0 0.00 0.00 0.00 29 980.1
20211207232131 40 0 0.0 1.0 0.00 0.00 0.00 30 980.1
20211207231631 40 0 0.0 2.0 0.00 0.00 0.00 30 980.2
20211207231136 40 0 0.0 3.0 0.00 0.00 0.00 31 980.2
20211207230629 40 0 0.0 3.0 0.00 0.00 0.00 30 979.9
20211207230135 40 0 0.0 1.0 0.00 0.00 0.00 30 979.7
20211207225623 39 0 0.0 0.0 0.00 0.00 0.00 31 979.6
20211207225123 39 0 0.0 0.0 0.00 0.00 0.00 31 979.5
20211207224624 39 0 0.0 2.0 0.00 0.00 0.00 31 979.7
20211207224123 39 0 0.0 2.0 0.00 0.00 0.00 31 980.0
20211207223635 39 0 0.0 1.0 0.00 0.00 0.00 33 979.8
20211207223139 39 0 0.0 1.0 0.00 0.00 0.00 33 979.7
20211207222440 39 0 0.0 1.0 0.00 0.00 0.00 34 979.3
20211207221943 40 0 0.0 1.0 0.00 0.00 0.00 34 979.7
20211207221441 40 0 0.0 1.0 0.00 0.00 0.00 33 979.6
20211207220938 40 0 0.0 1.0 0.00 0.00 0.00 33 979.5
20211207220438 40 0 0.0 1.0 0.00 0.00 0.00 33 979.3
20211207215942 40 0 0.0 0.0 0.00 0.00 0.00 33 979.3
20211207215438 41 0 0.0 0.0 0.00 0.00 0.00 33 979.3
20211207214939 41 0 0.0 0.0 0.00 0.00 0.00 33 979.3
20211207214440 42 0 0.0 0.0 0.00 0.00 0.00 33 979.4
20211207213939 42 0 0.0 0.0 0.00 0.00 0.00 32 979.3
20211207213438 42 0 0.0 0.0 0.00 0.00 0.00 32 979.4
20211207212938 43 0 0.0 0.0 0.00 0.00 0.00 32 979.3
20211207212438 43 0 0.0 0.0 0.00 0.00 0.00 32 979.3
20211207211456 43 0 0.0 0.0 0.00 0.00 0.00 32 979.6
20211207211000 43 0 0.0 1.0 0.00 0.00 0.00 32 979.6
20211207210503 43 0 0.0 1.0 0.00 0.00 0.00 32 979.8
20211207205956 43 0 0.0 1.0 0.00 0.00 0.00 32 979.8
20211207205456 43 0 0.0 3.0 0.00 0.00 0.00 32 979.8
20211207204956 43 0 0.0 3.0 0.00 0.00 0.00 32 979.7
20211207204456 43 199 1.0 3.0 0.00 0.00 0.00 31 979.7
20211207203956 43 0 0.0 4.0 0.00 0.00 0.00 30 979.6
20211207203456 43 0 0.0 4.0 0.00 0.00 0.00 31 979.6
20211207202955 44 0 0.0 4.0 0.00 0.00 0.00 31 979.5
20211207202459 44 0 0.0 3.0 0.00 0.00 0.00 30 979.7
20211207201955 44 0 0.0 1.0 0.00 0.00 0.00 31 979.5
20211207201444 44 0 0.0 4.0 0.00 0.00 0.00 31 979.5
20211207200940 44 0 0.0 2.0 0.00 0.00 0.00 31 979.6
20211207200447 44 0 0.0 1.0 0.00 0.00 0.00 31 979.7
20211207195940 44 0 0.0 3.0 0.00 0.00 0.00 31 979.6
20211207195442 45 0 0.0 3.0 0.00 0.00 0.00 30 979.5
20211207194940 45 0 0.0 3.0 0.00 0.00 0.00 33 979.6
20211207194440 44 0 0.0 5.0 0.00 0.00 0.00 33 979.5
20211207193940 44 0 0.0 5.0 0.00 0.00 0.00 33 979.6
20211207193446 44 181 1.0 3.0 0.00 0.00 0.00 32 979.5
20211207192943 44 0 0.0 7.0 0.00 0.00 0.00 32 979.5
20211207192441 45 177 1.0 7.0 0.00 0.00 0.00 31 979.6
20211207191852 45 0 0.0 7.0 0.00 0.00 0.00 31 979.5
20211207191347 45 179 2.0 7.0 0.00 0.00 0.00 31 979.6
20211207190849 44 0 0.0 6.0 0.00 0.00 0.00 32 979.7
20211207190345 44 190 1.0 8.0 0.00 0.00 0.00 31 979.7
20211207185848 45 0 0.0 8.0 0.00 0.00 0.00 30 979.7
20211207185350 45 184 1.0 3.0 0.00 0.00 0.00 31 979.8
20211207184846 44 0 0.0 3.0 0.00 0.00 0.00 32 979.9
20211207184347 44 181 1.0 5.0 0.00 0.00 0.00 32 980.1
20211207183853 43 189 1.0 5.0 0.00 0.00 0.00 32 980.2
20211207182849 40 0 0.0 4.0 0.00 0.00 0.00 35 980.2
20211207182349 40 355 1.0 4.0 0.00 0.00 0.00 35 980.4
20211207181856 40 355 2.0 4.0 0.00 0.00 0.00 35 980.4
20211207181349 39 355 2.0 4.0 0.00 0.00 0.00 36 980.5
20211207180853 39 355 1.0 4.0 0.00 0.00 0.00 37 980.6
20211207180349 39 355 2.0 4.0 0.00 0.00 0.00 37 980.7
20211207175849 39 0 0.0 3.0 0.00 0.00 0.00 36 980.8
20211207175242 39 0 0.0 5.0 0.00 0.00 0.00 34 980.9
20211207174742 39 355 2.0 5.0 0.00 0.00 0.00 37 981.2
20211207174242 38 0 0.0 6.0 0.00 0.00 0.00 39 981.2
20211207173747 38 345 3.0 6.0 0.00 0.00 0.00 41 981.4
20211207173244 38 0 0.0 5.0 0.00 0.00 0.00 41 981.4
20211207172742 38 355 2.0 5.0 0.00 0.00 0.00 41 981.5
20211207172242 38 355 2.0 5.0 0.00 0.00 0.00 41 981.7
20211207171339 38 355 2.0 5.0 0.00 0.00 0.00 42 981.8
20211207170847 38 355 2.0 6.0 0.00 0.00 0.00 42 981.8
20211207170339 37 347 2.0 6.0 0.00 0.00 0.00 41 981.9
20211207165839 37 349 2.0 5.0 0.00 0.00 0.00 43 981.9
20211207165339 37 343 2.0 5.0 0.00 0.00 0.00 44 981.9
20211207164842 36 0 0.0 3.0 0.00 0.00 0.00 44 982.0
20211207163954 36 0 0.0 4.0 0.00 0.00 0.00 46 982.0
20211207163452 35 330 1.0 5.0 0.00 0.00 0.00 47 982.1
20211207162952 35 335 1.0 5.0 0.00 0.00 0.00 46 982.3
20211207162453 35 0 0.0 5.0 0.00 0.00 0.00 47 982.5
20211207161954 35 356 1.0 5.0 0.00 0.00 0.00 47 982.5
20211207161059 35 43 1.0 5.0 0.00 0.00 0.00 48 982.5
20211207160604 35 348 3.0 5.0 0.00 0.00 0.00 49 982.4
20211207160100 34 0 0.0 8.0 0.00 0.00 0.00 50 982.6
20211207155600 34 342 2.0 8.0 0.00 0.00 0.00 50 982.7
20211207155100 34 354 2.0 7.0 0.00 0.00 0.00 51 982.7
20211207154411 34 341 3.0 7.0 0.00 0.00 0.00 51 982.7
20211207153911 34 4 1.0 8.0 0.00 0.00 0.00 53 982.6
20211207153411 33 4 2.0 8.0 0.00 0.00 0.00 53 982.6
20211207152911 33 0 0.0 5.0 0.00 0.00 0.00 54 982.6
20211207152411 33 14 1.0 5.0 0.00 0.00 0.00 54 982.8
20211207151801 33 0 0.0 6.0 0.00 0.00 0.00 54 982.7
20211207151301 33 355 1.0 6.0 0.00 0.00 0.00 55 982.7
20211207150800 32 355 1.0 7.0 0.00 0.00 0.00 57 982.8
20211207150300 31 12 3.0 9.0 0.00 0.00 0.00 57 982.7
20211207145804 31 20 3.0 9.0 0.00 0.00 0.00 58 982.6
20211207144856 31 6 2.0 10.0 0.00 0.00 0.00 60 982.6
20211207144357 30 360 5.0 10.0 0.00 0.00 0.00 60 982.5
20211207143858 30 16 4.0 9.0 0.00 0.00 0.00 59 982.5
20211207143355 30 351 2.0 9.0 0.00 0.00 0.00 61 982.2
20211207142855 30 354 3.0 9.0 0.00 0.00 0.00 62 982.1
20211207142355 29 2 4.0 12.0 0.00 0.00 0.00 63 982.1
20211207141855 29 360 5.0 12.0 0.00 0.00 0.00 63 981.8
20211207141355 29 2 5.0 10.0 0.00 0.00 0.00 63 981.8
20211207140718 29 13 6.0 12.0 0.00 0.00 0.00 63 981.7
20211207135822 29 1 8.0 15.0 0.00 0.00 0.00 64 981.7
20211207135321 28 4 6.0 11.0 0.00 0.00 0.00 64 981.8
20211207134831 28 3 6.0 12.0 0.00 0.00 0.00 65 981.7
20211207134326 28 13 6.0 12.0 0.00 0.00 0.00 66 981.5
20211207133529 27 10 6.0 11.0 0.00 0.00 0.00 66 981.5
20211207133029 27 6 5.0 13.0 0.00 0.00 0.00 67 981.4
20211207132529 27 9 7.0 13.0 0.00 0.00 0.00 66 981.4
20211207132029 27 359 6.0 11.0 0.00 0.00 0.00 65 981.4
20211207131530 27 357 4.0 11.0 0.00 0.00 0.00 65 981.3
20211207130823 27 354 7.0 11.0 0.00 0.00 0.00 64 981.3
20211207130323 27 1 5.0 11.0 0.00 0.00 0.00 64 981.3
20211207125824 27 359 4.0 10.0 0.00 0.00 0.00 63 981.3
20211207125326 27 3 6.0 11.0 0.00 0.00 0.00 62 981.2
20211207124823 27 355 4.0 11.0 0.00 0.00 0.00 61 981.1
20211207124320 28 5 4.0 10.0 0.00 0.00 0.00 61 980.8
20211207123840 27 5 5.0 9.0 0.00 0.00 0.00 61 980.9
20211207123320 27 356 4.0 9.0 0.00 0.00 0.00 61 980.8